VHEDW YCCY-YCNY

Flight info

Callsign VHEDW
Flight time 1h 9m
Altitude 2500
Route YBKW YLOR YGDS
Aircraft BE58/L-SDFG/C

Departure

Time 2026-04-24 09:09
Airport Cloncurry Airport (YCCY)

Arrival

Time 2026-04-24 10:19
Airport Century Mine Airport (YCNY)
Time Latitude Longitude Altitude Speed Heading
2026-04-24 09:02 -20.66848 140.50684 636 ft 0 kts 58°
2026-04-24 09:05 -20.66847 140.50685 636 ft 1 kts 59°
2026-04-24 09:05 -20.66843 140.50709 637 ft 5 kts 104°
2026-04-24 09:05 -20.66841 140.50761 638 ft 7 kts 64°
2026-04-24 09:06 -20.66814 140.50815 639 ft 8 kts 61°
2026-04-24 09:06 -20.66783 140.50864 638 ft 0 kts 52°
2026-04-24 09:06 -20.66780 140.50870 638 ft 4 kts 53°
2026-04-24 09:07 -20.66738 140.50917 637 ft 10 kts 358°
2026-04-24 09:07 -20.66679 140.50853 636 ft 15 kts 308°
2026-04-24 09:07 -20.66504 140.50615 632 ft 24 kts 302°
2026-04-24 09:08 -20.66395 140.50465 632 ft 26 kts 307°
2026-04-24 09:08 -20.66288 140.50328 632 ft 14 kts 317°
2026-04-24 09:08 -20.66279 140.50302 632 ft 6 kts 108°
2026-04-24 09:08 -20.66296 140.50330 632 ft 3 kts 128°
2026-04-24 09:09 -20.66438 140.50523 633 ft 70 kts 128°
2026-04-24 09:09 -20.66825 140.51051 736 ft 97 kts 127°
2026-04-24 09:09 -20.67273 140.51640 989 ft 112 kts 123°
2026-04-24 09:09 -20.67546 140.52437 1220 ft 123 kts 85°
2026-04-24 09:10 -20.67132 140.53262 1552 ft 130 kts 59°
2026-04-24 09:10 -20.66491 140.53955 1926 ft 132 kts 50°
2026-04-24 09:10 -20.65576 140.54359 2024 ft 165 kts 12°
2026-04-24 09:10 -20.64389 140.53973 1984 ft 196 kts 329°
2026-04-24 09:11 -20.63573 140.52763 2047 ft 203 kts 296°
2026-04-24 09:11 -20.63027 140.51395 2220 ft 199 kts 293°
2026-04-24 09:11 -20.62505 140.50046 2399 ft 194 kts 293°
2026-04-24 09:11 -20.61990 140.48708 2564 ft 192 kts 294°
2026-04-24 09:12 -20.61484 140.47397 2722 ft 193 kts 293°
2026-04-24 09:12 -20.60905 140.46114 2934 ft 190 kts 306°
2026-04-24 09:12 -20.60019 140.45099 3146 ft 185 kts 326°
2026-04-24 09:12 -20.58989 140.44276 3361 ft 184 kts 332°
2026-04-24 09:13 -20.57929 140.43515 3583 ft 183 kts 332°
2026-04-24 09:13 -20.56861 140.42775 3801 ft 183 kts 333°
2026-04-24 09:13 -20.55783 140.42038 4019 ft 182 kts 334°
2026-04-24 09:13 -20.54705 140.41303 4236 ft 182 kts 335°
2026-04-24 09:14 -20.53650 140.40587 4418 ft 183 kts 335°
2026-04-24 09:14 -20.52555 140.39844 4514 ft 189 kts 334°
2026-04-24 09:14 -20.51465 140.38960 4503 ft 201 kts 323°
2026-04-24 09:14 -20.50423 140.37926 4495 ft 204 kts 322°
2026-04-24 09:15 -20.49388 140.36897 4495 ft 204 kts 322°
2026-04-24 09:15 -20.48352 140.35872 4497 ft 203 kts 322°
2026-04-24 09:15 -20.47316 140.34851 4542 ft 199 kts 322°
2026-04-24 09:15 -20.46291 140.33841 4548 ft 199 kts 323°
2026-04-24 09:16 -20.45271 140.32835 4548 ft 199 kts 322°
2026-04-24 09:16 -20.44254 140.31833 4545 ft 199 kts 322°
2026-04-24 09:16 -20.43164 140.30966 4547 ft 193 kts 339°
2026-04-24 09:16 -20.41947 140.30348 4544 ft 193 kts 342°
2026-04-24 09:17 -20.40719 140.29744 4543 ft 193 kts 342°
2026-04-24 09:17 -20.39506 140.29140 4539 ft 193 kts 341°
2026-04-24 09:17 -20.38279 140.28526 4527 ft 194 kts 341°
2026-04-24 09:17 -20.37042 140.27908 4501 ft 194 kts 341°
2026-04-24 09:18 -20.35824 140.27298 4499 ft 194 kts 342°
2026-04-24 09:18 -20.34597 140.26685 4497 ft 193 kts 341°
2026-04-24 09:18 -20.33383 140.26079 4499 ft 193 kts 342°
2026-04-24 09:18 -20.32156 140.25464 4505 ft 192 kts 342°
2026-04-24 09:19 -20.30954 140.24866 4506 ft 192 kts 342°
2026-04-24 09:19 -20.29739 140.24257 4504 ft 192 kts 342°
2026-04-24 09:19 -20.28479 140.23935 4506 ft 183 kts
2026-04-24 09:19 -20.27193 140.23859 4500 ft 183 kts
2026-04-24 09:20 -20.25929 140.23791 4499 ft 183 kts
2026-04-24 09:20 -20.24219 140.23697 4506 ft 182 kts
2026-04-24 09:20 -20.23380 140.23650 4506 ft 182 kts
2026-04-24 09:20 -20.22105 140.23579 4504 ft 183 kts
2026-04-24 09:21 -20.20827 140.23508 4500 ft 182 kts
2026-04-24 09:21 -20.19558 140.23438 4496 ft 183 kts
2026-04-24 09:21 -20.18274 140.23364 4492 ft 183 kts
2026-04-24 09:21 -20.17007 140.23292 4490 ft 183 kts
2026-04-24 09:22 -20.15724 140.23173 4489 ft 184 kts
2026-04-24 09:22 -20.14440 140.22987 4490 ft 185 kts
2026-04-24 09:22 -20.13161 140.22797 4491 ft 184 kts
2026-04-24 09:22 -20.11892 140.22610 4493 ft 185 kts
2026-04-24 09:23 -20.10613 140.22424 4497 ft 185 kts
2026-04-24 09:23 -20.09320 140.22235 4490 ft 185 kts
2026-04-24 09:23 -20.08046 140.22047 4491 ft 185 kts
2026-04-24 09:23 -20.06759 140.21860 4487 ft 186 kts
2026-04-24 09:24 -20.05468 140.21670 4486 ft 185 kts
2026-04-24 09:24 -20.04201 140.21571 4485 ft 183 kts
2026-04-24 09:24 -20.02916 140.21521 4487 ft 182 kts
2026-04-24 09:24 -20.01639 140.21472 4487 ft 182 kts
2026-04-24 09:25 -20.00373 140.21422 4489 ft 182 kts
2026-04-24 09:25 -19.99100 140.21373 4489 ft 182 kts
2026-04-24 09:25 -19.97831 140.21324 4485 ft 182 kts
2026-04-24 09:25 -19.96572 140.21274 4486 ft 181 kts
2026-04-24 09:26 -19.95290 140.21225 4489 ft 181 kts
2026-04-24 09:26 -19.94026 140.21175 4492 ft 182 kts
2026-04-24 09:26 -19.92753 140.21126 4495 ft 182 kts
2026-04-24 09:26 -19.91491 140.21075 4500 ft 182 kts
2026-04-24 09:27 -19.90226 140.21027 4498 ft 183 kts
2026-04-24 09:27 -19.88951 140.20976 4495 ft 183 kts
2026-04-24 09:27 -19.87706 140.21115 4497 ft 177 kts 19°
2026-04-24 09:27 -19.86492 140.21379 4495 ft 177 kts 20°
2026-04-24 09:28 -19.85276 140.21648 4493 ft 177 kts 20°
2026-04-24 09:28 -19.84085 140.21910 4496 ft 176 kts 19°
2026-04-24 09:28 -19.82875 140.22176 4497 ft 176 kts 19°
2026-04-24 09:28 -19.81663 140.22443 4494 ft 176 kts 20°
2026-04-24 09:29 -19.80473 140.22704 4495 ft 175 kts 20°
2026-04-24 09:29 -19.79265 140.22969 4494 ft 176 kts 19°
2026-04-24 09:29 -19.78066 140.23231 4494 ft 176 kts 20°
2026-04-24 09:29 -19.76860 140.23497 4494 ft 176 kts 19°
2026-04-24 09:30 -19.75607 140.23529 4492 ft 183 kts
2026-04-24 09:30 -19.73918 140.23262 4486 ft 185 kts 358°
2026-04-24 09:30 -19.73059 140.23119 4485 ft 185 kts 359°
2026-04-24 09:30 -19.71796 140.22911 4485 ft 185 kts 359°
2026-04-24 09:31 -19.70510 140.22708 4480 ft 184 kts
2026-04-24 09:31 -19.69253 140.22704 4480 ft 180 kts
2026-04-24 09:31 -19.67984 140.22748 4482 ft 180 kts
2026-04-24 09:31 -19.66731 140.22792 4484 ft 180 kts
2026-04-24 09:32 -19.65465 140.22836 4485 ft 180 kts 10°
2026-04-24 09:32 -19.64207 140.22881 4486 ft 180 kts
2026-04-24 09:32 -19.62958 140.22922 4489 ft 180 kts 10°
2026-04-24 09:32 -19.61694 140.22966 4488 ft 180 kts
2026-04-24 09:33 -19.60438 140.23009 4489 ft 180 kts
2026-04-24 09:33 -19.59196 140.23051 4483 ft 180 kts 10°
2026-04-24 09:33 -19.57936 140.23131 4483 ft 178 kts 14°
2026-04-24 09:33 -19.56714 140.23309 4478 ft 178 kts 16°
2026-04-24 09:34 -19.55483 140.23496 4477 ft 177 kts 15°
2026-04-24 09:34 -19.54246 140.23683 4477 ft 177 kts 16°
2026-04-24 09:34 -19.53019 140.23869 4474 ft 177 kts 17°
2026-04-24 09:34 -19.51805 140.24052 4480 ft 177 kts 16°
2026-04-24 09:35 -19.50574 140.24239 4482 ft 177 kts 16°
2026-04-24 09:35 -19.49344 140.24361 4475 ft 183 kts
2026-04-24 09:35 -19.48059 140.24100 4480 ft 186 kts 354°
2026-04-24 09:35 -19.46790 140.23776 4477 ft 187 kts 353°
2026-04-24 09:36 -19.45521 140.23451 4475 ft 187 kts 354°
2026-04-24 09:36 -19.44247 140.23145 4468 ft 184 kts
2026-04-24 09:36 -19.42986 140.23143 4471 ft 180 kts 11°
2026-04-24 09:36 -19.41725 140.23216 4470 ft 179 kts 11°
2026-04-24 09:37 -19.40489 140.23288 4470 ft 179 kts 11°
2026-04-24 09:37 -19.39227 140.23363 4470 ft 179 kts 11°
2026-04-24 09:37 -19.37989 140.23434 4471 ft 179 kts 11°
2026-04-24 09:37 -19.36728 140.23506 4467 ft 179 kts 10°
2026-04-24 09:38 -19.35493 140.23647 4454 ft 173 kts 27°
2026-04-24 09:38 -19.34546 140.24362 4467 ft 164 kts 50°
2026-04-24 09:38 -19.33742 140.25214 4464 ft 164 kts 52°
2026-04-24 09:38 -19.32947 140.26076 4464 ft 164 kts 52°
2026-04-24 09:39 -19.32148 140.26950 4464 ft 164 kts 52°
2026-04-24 09:39 -19.31361 140.27814 4465 ft 164 kts 52°
2026-04-24 09:39 -19.30568 140.28688 4461 ft 164 kts 52°
2026-04-24 09:39 -19.29772 140.29567 4460 ft 163 kts 52°
2026-04-24 09:40 -19.28993 140.30429 4461 ft 163 kts 52°
2026-04-24 09:40 -19.28200 140.31306 4461 ft 163 kts 52°
2026-04-24 09:40 -19.27388 140.32147 4449 ft 168 kts 40°
2026-04-24 09:40 -19.26212 140.32369 4453 ft 185 kts 356°
2026-04-24 09:41 -19.25036 140.31715 4456 ft 194 kts 328°
2026-04-24 09:41 -19.23969 140.30843 4450 ft 195 kts 327°
2026-04-24 09:41 -19.22899 140.29954 4446 ft 195 kts 327°
2026-04-24 09:41 -19.21818 140.29057 4447 ft 195 kts 327°
2026-04-24 09:42 -19.20898 140.27998 4447 ft 199 kts 308°
2026-04-24 09:42 -19.20129 140.26755 4445 ft 200 kts 306°
2026-04-24 09:42 -19.19374 140.25513 4448 ft 200 kts 306°
2026-04-24 09:42 -19.18626 140.24287 4451 ft 200 kts 306°
2026-04-24 09:43 -19.17868 140.23050 4454 ft 200 kts 307°
2026-04-24 09:43 -19.17104 140.21805 4449 ft 200 kts 306°
2026-04-24 09:43 -19.16347 140.20572 4444 ft 201 kts 306°
2026-04-24 09:43 -19.15575 140.19313 4439 ft 201 kts 306°
2026-04-24 09:44 -19.14822 140.18088 4439 ft 201 kts 306°
2026-04-24 09:44 -19.14059 140.16847 4440 ft 201 kts 306°
2026-04-24 09:44 -19.13290 140.15596 4441 ft 200 kts 307°
2026-04-24 09:44 -19.12534 140.14366 4443 ft 200 kts 306°
2026-04-24 09:45 -19.11846 140.13066 4445 ft 201 kts 298°
2026-04-24 09:45 -19.11252 140.11736 4444 ft 201 kts 297°
2026-04-24 09:45 -19.10653 140.10385 4442 ft 202 kts 297°
2026-04-24 09:45 -19.10059 140.09050 4445 ft 202 kts 297°
2026-04-24 09:46 -19.09461 140.07712 4445 ft 202 kts 297°
2026-04-24 09:46 -19.08696 140.06485 4450 ft 197 kts 319°
2026-04-24 09:46 -19.07697 140.05505 4442 ft 197 kts 323°
2026-04-24 09:46 -19.06664 140.04532 4442 ft 197 kts 323°
2026-04-24 09:47 -19.05644 140.03569 4438 ft 198 kts 323°
2026-04-24 09:47 -19.04615 140.02594 4436 ft 197 kts 323°
2026-04-24 09:47 -19.03588 140.01621 4438 ft 197 kts 323°
2026-04-24 09:47 -19.02452 140.00851 4444 ft 190 kts 341°
2026-04-24 09:48 -19.01246 140.00291 4448 ft 190 kts 343°
2026-04-24 09:48 -19.00033 139.99739 4451 ft 190 kts 343°
2026-04-24 09:48 -18.98806 139.99179 4454 ft 190 kts 343°
2026-04-24 09:48 -18.97584 139.98621 4456 ft 190 kts 342°
2026-04-24 09:49 -18.96367 139.98064 4455 ft 190 kts 343°
2026-04-24 09:49 -18.95144 139.97488 4453 ft 193 kts 337°
2026-04-24 09:49 -18.94032 139.96687 4455 ft 195 kts 328°
2026-04-24 09:49 -18.92932 139.95815 4452 ft 195 kts 328°
2026-04-24 09:50 -18.91860 139.94961 4471 ft 194 kts 328°
2026-04-24 09:50 -18.90773 139.94101 4485 ft 193 kts 328°
2026-04-24 09:50 -18.89331 139.92961 4496 ft 194 kts 329°
2026-04-24 09:50 -18.88583 139.92461 4493 ft 191 kts 337°
2026-04-24 09:51 -18.87391 139.91801 4493 ft 191 kts 339°
2026-04-24 09:51 -18.86209 139.91161 4491 ft 191 kts 339°
2026-04-24 09:51 -18.85011 139.90509 4490 ft 191 kts 339°
2026-04-24 09:51 -18.83822 139.89861 4489 ft 191 kts 339°
2026-04-24 09:52 -18.82655 139.89195 4481 ft 194 kts 329°
2026-04-24 09:52 -18.81905 139.87990 4487 ft 202 kts 286°
2026-04-24 09:52 -18.81685 139.86536 4488 ft 202 kts 277°
2026-04-24 09:52 -18.81519 139.85048 4489 ft 202 kts 277°
2026-04-24 09:53 -18.81352 139.83583 4490 ft 202 kts 277°
2026-04-24 09:53 -18.81182 139.82109 4489 ft 203 kts 277°
2026-04-24 09:53 -18.81009 139.80624 4489 ft 203 kts 277°
2026-04-24 09:53 -18.80833 139.79141 4489 ft 203 kts 277°
2026-04-24 09:54 -18.80475 139.77708 4492 ft 203 kts 290°
2026-04-24 09:54 -18.80016 139.76296 4490 ft 203 kts 291°
2026-04-24 09:54 -18.79557 139.74890 4491 ft 203 kts 291°
2026-04-24 09:54 -18.79095 139.73471 4490 ft 203 kts 290°
2026-04-24 09:55 -18.78640 139.72073 4489 ft 203 kts 291°
2026-04-24 09:55 -18.78002 139.70749 4490 ft 201 kts 303°
2026-04-24 09:55 -18.77273 139.69475 4489 ft 201 kts 304°
2026-04-24 09:55 -18.76558 139.68228 4485 ft 201 kts 304°
2026-04-24 09:56 -18.75829 139.66952 4486 ft 201 kts 304°
2026-04-24 09:56 -18.75107 139.65686 4488 ft 201 kts 304°
2026-04-24 09:56 -18.74392 139.64432 4489 ft 201 kts 304°
2026-04-24 09:56 -18.73669 139.63162 4490 ft 201 kts 304°
2026-04-24 09:57 -18.72705 139.61470 4489 ft 201 kts 304°
2026-04-24 09:57 -18.72224 139.60626 4491 ft 201 kts 304°
2026-04-24 09:57 -18.71586 139.59315 4489 ft 203 kts 293°
2026-04-24 09:57 -18.71116 139.57907 4489 ft 203 kts 290°
2026-04-24 09:58 -18.70662 139.56502 4489 ft 203 kts 290°
2026-04-24 09:58 -18.70202 139.55087 4489 ft 203 kts 290°
2026-04-24 09:58 -18.69746 139.53690 4490 ft 202 kts 290°
2026-04-24 09:58 -18.69284 139.52277 4489 ft 202 kts 290°
2026-04-24 09:59 -18.68826 139.50877 4490 ft 202 kts 291°
2026-04-24 09:59 -18.68364 139.49455 4489 ft 203 kts 288°
2026-04-24 09:59 -18.68330 139.47990 4492 ft 202 kts 259°
2026-04-24 09:59 -18.68592 139.46521 4490 ft 202 kts 256°
2026-04-24 10:00 -18.68866 139.45070 4491 ft 203 kts 257°
2026-04-24 10:00 -18.69139 139.43613 4489 ft 203 kts 257°
2026-04-24 10:00 -18.69411 139.42151 4487 ft 203 kts 257°
2026-04-24 10:00 -18.69682 139.40692 4487 ft 203 kts 257°
2026-04-24 10:01 -18.69947 139.39244 4488 ft 202 kts 259°
2026-04-24 10:01 -18.69791 139.37770 4493 ft 202 kts 287°
2026-04-24 10:01 -18.69377 139.36360 4492 ft 203 kts 289°
2026-04-24 10:01 -18.68945 139.34937 4490 ft 203 kts 289°
2026-04-24 10:02 -18.68519 139.33524 4486 ft 203 kts 289°
2026-04-24 10:02 -18.68091 139.32101 4485 ft 203 kts 289°
2026-04-24 10:02 -18.67593 139.30711 4483 ft 200 kts 303°
2026-04-24 10:02 -18.66813 139.29512 4489 ft 199 kts 310°
2026-04-24 10:03 -18.65989 139.28328 4489 ft 199 kts 310°
2026-04-24 10:03 -18.65174 139.27156 4488 ft 199 kts 310°
2026-04-24 10:03 -18.64363 139.25986 4489 ft 199 kts 310°
2026-04-24 10:03 -18.63543 139.24802 4491 ft 199 kts 310°
2026-04-24 10:04 -18.62794 139.23569 4483 ft 202 kts 291°
2026-04-24 10:04 -18.62712 139.22118 4496 ft 201 kts 263°
2026-04-24 10:04 -18.62902 139.20647 4496 ft 202 kts 261°
2026-04-24 10:04 -18.63104 139.19173 4493 ft 202 kts 261°
2026-04-24 10:05 -18.63368 139.17212 4495 ft 202 kts 261°
2026-04-24 10:05 -18.63496 139.16243 4496 ft 202 kts 261°
2026-04-24 10:05 -18.63693 139.14757 4497 ft 203 kts 261°
2026-04-24 10:05 -18.63885 139.13300 4499 ft 202 kts 261°
2026-04-24 10:06 -18.64063 139.11819 4497 ft 203 kts 268°
2026-04-24 10:06 -18.63180 139.09050 4504 ft 201 kts 296°
2026-04-24 10:06 -18.62615 139.07693 4502 ft 201 kts 296°
2026-04-24 10:07 -18.62058 139.06345 4500 ft 201 kts 296°
2026-04-24 10:07 -18.61721 139.04918 4499 ft 202 kts 278°
2026-04-24 10:07 -18.61543 139.03450 4500 ft 202 kts 278°
2026-04-24 10:07 -18.61361 139.01970 4498 ft 203 kts 278°
2026-04-24 10:08 -18.61174 139.00490 4499 ft 203 kts 278°
2026-04-24 10:08 -18.60988 138.99022 4498 ft 203 kts 278°
2026-04-24 10:08 -18.60798 138.97536 4501 ft 203 kts 278°
2026-04-24 10:08 -18.60611 138.96071 4503 ft 203 kts 278°
2026-04-24 10:09 -18.60422 138.94592 4503 ft 204 kts 278°
2026-04-24 10:09 -18.60233 138.93109 4497 ft 203 kts 278°
2026-04-24 10:09 -18.60055 138.91623 4309 ft 200 kts 276°
2026-04-24 10:09 -18.59905 138.90199 4092 ft 194 kts 276°
2026-04-24 10:10 -18.59755 138.88792 3861 ft 191 kts 276°
2026-04-24 10:10 -18.59609 138.87421 3627 ft 189 kts 276°
2026-04-24 10:10 -18.59461 138.86037 3388 ft 189 kts 276°
2026-04-24 10:10 -18.59315 138.84676 3153 ft 188 kts 276°
2026-04-24 10:11 -18.59167 138.83292 2916 ft 187 kts 276°
2026-04-24 10:11 -18.59023 138.81946 2671 ft 184 kts 275°
2026-04-24 10:11 -18.58880 138.80617 2422 ft 181 kts 275°
2026-04-24 10:11 -18.58919 138.79321 2172 ft 178 kts 256°
2026-04-24 10:12 -18.59191 138.78052 1922 ft 176 kts 252°
2026-04-24 10:12 -18.59475 138.76805 1673 ft 175 kts 252°
2026-04-24 10:12 -18.59744 138.75580 1606 ft 161 kts 252°
2026-04-24 10:12 -18.59983 138.74480 1613 ft 145 kts 251°
2026-04-24 10:13 -18.60204 138.73480 1628 ft 140 kts 250°
2026-04-24 10:13 -18.60380 138.72435 1633 ft 151 kts 259°
2026-04-24 10:13 -18.60479 138.71278 1630 ft 162 kts 261°
2026-04-24 10:13 -18.60578 138.70081 1624 ft 169 kts 262°
2026-04-24 10:14 -18.60683 138.68822 1624 ft 173 kts 261°
2026-04-24 10:14 -18.61036 138.67633 1625 ft 167 kts 225°
2026-04-24 10:14 -18.61946 138.67009 1619 ft 151 kts 182°
2026-04-24 10:14 -18.62944 138.67097 1622 ft 140 kts 159°
2026-04-24 10:15 -18.63889 138.67302 1620 ft 141 kts 165°
2026-04-24 10:15 -18.64902 138.67299 1629 ft 142 kts 171°
2026-04-24 10:15 -18.65894 138.67296 1627 ft 142 kts 170°
2026-04-24 10:15 -18.66894 138.67293 1633 ft 141 kts 171°
2026-04-24 10:16 -18.67885 138.67293 1628 ft 141 kts 171°
2026-04-24 10:16 -18.68854 138.67291 1647 ft 130 kts 170°
2026-04-24 10:16 -18.69693 138.67270 1592 ft 112 kts 170°
2026-04-24 10:16 -18.70449 138.67264 1486 ft 103 kts 167°
2026-04-24 10:17 -18.71157 138.67329 1346 ft 98 kts 156°
2026-04-24 10:17 -18.71789 138.67552 1241 ft 90 kts 146°
2026-04-24 10:17 -18.72312 138.67866 1178 ft 83 kts 137°
2026-04-24 10:17 -18.72782 138.68248 1061 ft 85 kts 137°
2026-04-24 10:18 -18.73243 138.68625 981 ft 84 kts 134°
2026-04-24 10:18 -18.73692 138.69046 874 ft 87 kts 134°
2026-04-24 10:18 -18.74163 138.69458 769 ft 88 kts 136°
2026-04-24 10:18 -18.74643 138.69873 656 ft 88 kts 135°
2026-04-24 10:19 -18.75106 138.70270 514 ft 83 kts 135°
2026-04-24 10:19 -18.75544 138.70636 429 ft 73 kts 137°
2026-04-24 10:19 -18.75830 138.70879 429 ft 14 kts 143°
2026-04-24 10:19 -18.75865 138.70915 429 ft 11 kts 333°
2026-04-24 10:20 -18.75752 138.70815 429 ft 29 kts 322°
2026-04-24 10:20 -18.75604 138.70689 429 ft 25 kts 321°
2026-04-24 10:20 -18.75495 138.70598 429 ft 9 kts 316°
2026-04-24 10:20 -18.75511 138.70540 429 ft 9 kts 231°
2026-04-24 10:21 -18.75544 138.70499 429 ft 6 kts 204°
2026-04-24 10:21 -18.75577 138.70517 429 ft 6 kts 135°
2026-04-24 10:21 -18.75615 138.70538 429 ft 5 kts 233°
2026-04-24 10:21 -18.75606 138.70523 429 ft 0 kts 316°